Temperature
18 18 18 18 18 18 18 18 18 18 18 18 18 18 18 18 18 18 18 18 18 18 18 18 18 18 18 18 18 18 18 18 18 18 18 18 18 18 18 18 18 18 18
18 18 18 18 18 18 18 18 18 18 18 18 18 18 18 18 18 18 18 18 18 18 18 18 18 18 18 18 18 18 18 18 18 18 18 18 18 18 18 18 18 18 18
18 18 18 18 18 18 18 18 18 18 18 18 18 18 18 18 17 17 17 17 17 17 17 17 17 17 17 17 17 17 18 18 18 18 18 18 18 18 18 18 18 18 18
18 18 18 18 18 18 18 18 18 18 18 18 17 17 17 17 17 17 17 17 17 17 17 17 17 17 17 17 17 17 17 17 17 18 18 18 18 17 17 18 18 18 18
18 18 18 17 18 18 18 18 18 18 17 17 17 17 17 17 17 17 17 17 17 17 17 17 17 17 17 17 17 17 17 17 17 17 18 18 18 17 17 18 18 18 18
18 17 17 17 17 17 17 17 17 17 17 17 17 17 16 16 16 16 16 16 16 16 16 16 16 16 17 17 17 17 17 17 17 17 17 17 18 17 17 18 18 18 18
18 17 17 17 17 17 17 17 17 17 17 16 16 16 16 16 16 16 16 16 16 16 16 16 16 16 16 17 17 17 17 17 17 17 17 17 17 17 17 17 18 18 18
17 17 17 17 17 17 17 17 17 16 16 16 16 16 16 16 16 15 15 15 15 16 16 16 16 16 16 17 17 17 17 17 17 17 17 17 17 17 17 17 17 17 18
17 17 17 17 17 17 17 16 16 16 16 16 16 16 16 16 15 15 15 15 15 15 15 15 16 16 16 16 16 16 17 17 17 17 17 17 17 17 17 17 17 17 17
17 17 17 17 17 17 16 16 16 16 16 16 16 15 15 15 15 15 15 15 15 15 15 15 15 15 16 16 16 16 16 16 17 17 17 17 17 17 17 17 17 17 17
17 17 17 17 17 17 16 16 16 16 16 16 16 15 15 15 15 15 15 15 15 15 15 15 15 15 15 16 16 16 16 16 16 16 17 16 17 17 17 17 17 17 17
17 17 17 17 17 17 16 16 16 16 16 16 16 16 15 15 15 15 15 15 15 15 15 15 15 15 15 15 15 16 16 16 16 16 16 16 16 16 17 17 17 17 17
17 17 17 17 17 17 16 16 16 16 16 16 16 15 15 15 15 15 15 15 15 15 15 15 15 15 15 15 15 16 16 16 16 16 16 16 16 16 16 16 17 17 17
17 17 17 17 17 17 16 16 16 16 16 16 15 15 15 15 15 15 15 15 15 15 15 15 15 15 15 15 15 15 16 16 16 16 16 16 16 16 16 16 17 17 17
18 17 17 17 17 17 17 16 16 16 16 16 15 15 15 15 15 15 15 14 14 14 15 15 15 15 15 15 15 15 15 16 16 16 16 16 16 16 16 16 16 17 17
18 18 17 17 17 17 16 16 16 16 16 15 15 15 15 15 15 14 14 14 14 14 14 15 15 15 15 15 15 15 15 15 15 16 16 16 16 16 16 16 16 17 17
18 18 17 17 17 17 16 16 16 16 16 15 15 15 15 15 14 14 14 14 14 14 14 14 14 14 14 15 15 15 15 15 15 15 15 16 16 16 16 16 16 16 16
18 18 17 17 17 17 16 16 16 16 15 15 15 15 15 14 14 14 14 14 14 14 14 14 14 14 14 15 15 15 15 15 15 15 15 15 15 16 16 16 16 16 16
18 18 18 17 17 17 16 16 16 16 15 15 15 15 14 14 14 14 14 14 14 14 14 14 14 14 14 15 15 15 15 15 15 15 15 15 15 15 16 16 16 16 16
18 18 18 17 17 17 16 16 16 15 15 15 15 14 14 14 14 14 14 14 14 14 14 14 14 14 14 14 15 15 15 15 15 15 15 15 15 15 15 15 16 16 16
18 18 18 17 17 17 16 16 16 15 15 15 15 14 14 14 14 14 14 14 14 14 14 14 14 14 14 14 14 15 15 15 15 15 15 15 15 15 15 15 15 15 16
18 18 18 17 17 17 16 16 16 15 15 15 15 14 14 14 14 14 14 14 14 14 14 14 14 14 14 14 14 14 14 15 15 15 15 15 15 15 15 15 15 15 15
18 18 18 18 17 17 16 16 16 15 15 15 15 14 14 14 14 14 14 14 14 14 14 14 14 14 14 14 14 14 14 14 14 14 14 14 14 15 15 15 15 15 15
18 18 18 18 17 17 16 16 16 16 15 15 15 15 14 14 14 14 14 14 14 14 14 14 14 14 14 14 14 14 14 14 14 14 14 14 14 14 15 15 15 15 15
18 18 18 18 17 17 17 16 16 16 15 15 15 15 14 14 14 14 14 14 14 14 14 14 14 14 14 14 14 14 14 14 14 14 14 14 14 14 14 14 14 15 15
18 18 18 18 17 17 17 16 16 16 16 15 15 15 15 14 14 14 14 14 14 14 14 14 14 14 14 14 14 14 14 14 14 14 14 14 14 14 14 14 14 14 15
Wind_Speed
1 2 8 10 11 12 12 13 13 13 13 13 13 12 12 12 11 10 10 9 9 8 8 8 7 7 7 7 6 6 6 6 5 5 5 4 4 3 3 3 3 2 2
4 5 9 10 11 12 12 12 13 13 12 12 12 12 11 11 10 10 9 8 8 8 8 7 7 6 6 6 5 5 5 5 5 5 5 4 3 2 2 3 2 2 1
6 7 10 11 11 12 12 12 12 12 12 11 11 11 11 10 9 9 8 7 7 6 6 6 6 6 5 5 5 5 5 5 4 5 5 4 3 2 2 2 2 2 2
7 8 9 11 11 11 12 11 11 11 11 11 11 10 10 9 9 8 7 6 5 5 6 6 6 6 5 5 5 5 5 5 5 5 5 4 3 2 2 2 2 2 2
7 8 9 10 11 11 11 11 10 10 10 10 10 9 9 8 7 7 6 5 5 5 5 6 5 5 6 6 6 5 5 5 6 5 4 4 3 2 1 2 2 2 3
6 8 9 10 10 11 10 10 10 10 9 9 9 9 8 7 6 6 6 5 5 5 5 6 5 5 5 6 6 5 5 5 6 5 4 3 3 2 1 1 2 3 3
6 7 9 10 10 10 10 10 9 8 8 8 7 7 6 6 6 5 5 5 5 5 5 5 6 6 6 6 6 6 5 5 5 5 4 3 3 2 1 2 2 2 3
6 6 7 9 9 9 8 8 7 7 6 6 6 5 5 5 5 4 5 5 5 5 5 6 6 6 6 6 6 6 5 5 5 5 4 3 4 2 1 2 2 2 2
6 5 5 6 6 7 7 6 5 5 5 4 4 4 4 5 5 5 5 5 5 5 5 6 6 6 6 6 5 5 5 5 5 4 4 4 3 2 1 1 2 2 2
5 4 4 5 5 5 4 4 4 3 3 4 4 5 5 6 6 6 6 6 6 6 6 6 6 6 6 6 6 5 5 5 4 4 5 4 4 2 1 1 2 2 2
3 3 2 2 3 3 3 3 4 4 5 5 6 6 6 6 6 7 7 7 7 7 7 7 7 6 6 6 6 5 5 4 4 4 4 4 3 2 1 1 1 1 2
3 2 2 2 1 2 2 3 4 5 5 6 5 5 5 5 6 6 8 8 8 8 8 8 7 7 7 6 6 6 4 4 3 4 4 5 4 2 1 1 0 1 1
3 2 2 2 1 1 1 3 3 4 5 5 6 5 5 5 6 6 7 8 8 8 7 8 8 7 6 5 4 4 4 3 3 4 5 5 4 3 2 1 0 1 1
3 3 2 2 2 1 2 2 2 3 3 4 4 4 4 3 4 4 4 5 6 6 6 6 5 5 5 5 4 3 4 3 2 3 5 5 4 3 2 2 1 0 0
3 2 2 2 2 2 2 1 2 2 2 3 3 4 3 2 2 3 3 5 5 5 4 4 4 4 4 4 4 3 3 3 3 3 4 5 4 3 3 2 2 1 0
3 3 2 2 3 3 2 2 1 2 2 3 3 4 3 3 2 2 3 3 4 5 4 3 3 3 3 3 4 4 3 3 3 3 4 5 5 5 3 2 2 2 1
4 3 3 3 3 4 3 2 2 3 3 3 3 4 4 4 3 2 2 3 4 5 4 4 3 3 3 3 4 4 3 3 3 3 4 4 5 5 5 3 3 2 1
5 4 3 3 4 4 3 3 3 3 4 3 3 4 4 4 4 3 2 3 5 5 4 2 3 3 3 3 3 4 3 3 4 4 4 4 4 5 5 4 3 3 2
5 5 4 4 4 4 4 4 4 4 4 4 4 4 4 5 5 4 2 3 5 4 3 3 3 2 2 3 3 3 4 4 3 4 4 4 4 5 5 5 4 4 3
4 4 5 5 4 5 4 4 3 4 3 4 4 4 4 5 5 4 3 4 4 3 3 3 3 3 2 2 3 4 4 4 4 4 4 4 5 5 5 4 4 4 3
4 4 4 5 4 4 3 3 2 2 2 2 3 4 5 5 5 4 3 3 3 3 3 3 2 3 3 3 3 4 4 4 5 4 4 4 4 5 5 4 3 3 3
4 4 4 4 4 3 2 2 2 2 1 1 2 4 5 5 5 4 3 3 3 3 4 3 2 2 2 3 2 3 4 5 4 5 4 4 4 4 4 5 4 3 3
4 5 5 4 4 3 3 3 3 3 3 3 3 3 4 5 5 4 3 2 2 2 2 2 2 2 1 3 2 3 2 1 3 4 4 4 4 4 3 4 4 4 3
3 3 4 4 4 4 4 4 4 2 1 1 1 2 4 5 5 5 4 3 2 2 2 2 1 1 1 1 2 2 1 2 1 2 4 4 4 4 4 3 4 4 3
3 4 4 4 3 3 3 4 4 3 1 0 1 3 4 4 5 5 4 3 3 2 2 2 2 1 1 1 0 0 1 2 1 1 2 4 4 3 3 3 3 3 4
3 4 4 4 3 3 3 4 4 3 2 1 2 3 3 3 3 5 4 3 2 2 2 2 2 1 1 1 1 1 1 1 1 1 1 2 3 3 3 3 2 3 3
Wind_Direction
128 140 124 114 110 107 106 106 107 104 102 100 97 96 98 100 97 95 93 89 85 82 78 74 70 67 66 66 64 59 58 61 57 55 49 50 56 57 62 76 86 88 123
131 127 122 116 110 106 105 106 104 101 99 97 96 95 95 96 95 93 88 85 82 80 75 69 65 63 60 58 54 50 49 50 48 45 36 36 47 56 57 66 79 84 83
118 116 118 115 110 107 106 103 101 98 96 94 95 94 93 92 92 90 86 83 80 77 72 65 59 55 54 54 48 43 40 35 34 35 27 20 22 53 60 66 68 68 46
119 117 118 116 112 109 105 102 100 98 96 94 94 92 91 90 88 86 82 78 73 70 67 59 50 44 44 41 38 37 37 30 27 29 19 7 2 37 56 66 66 65 58
115 117 122 118 114 110 106 103 100 98 96 95 93 89 87 87 86 82 76 70 63 59 56 50 42 37 34 30 28 29 32 26 25 24 8 1 352 358 33 59 81 85 83
116 119 124 119 115 111 107 103 100 98 96 94 91 89 86 83 78 70 62 57 49 44 40 36 28 26 25 19 15 19 25 24 28 20 6 351 331 331 6 85 93 98 102
120 117 125 123 117 112 107 103 101 100 97 94 92 89 83 76 68 62 53 45 33 25 21 19 14 9 11 11 7 12 18 19 26 16 4 343 324 325 80 109 107 112 112
121 111 116 121 116 112 108 105 103 100 96 91 84 78 69 60 47 37 28 24 20 15 9 6 5 3 2 2 4 8 12 12 21 15 359 338 329 345 86 110 115 114 119
105 101 93 100 107 112 109 105 99 93 86 78 63 52 44 36 24 14 9 6 6 2 1 1 360 0 4 3 3 8 19 20 26 6 359 339 336 356 67 99 119 108 99
90 89 84 81 83 79 80 93 87 76 61 46 35 29 30 27 16 7 4 1 358 355 355 355 355 358 3 5 7 9 16 19 21 4 349 335 339 345 44 89 106 100 89
103 90 92 87 79 72 63 56 43 35 33 28 25 27 30 22 10 5 1 360 359 357 358 359 357 0 6 7 7 9 15 18 10 353 338 333 337 342 16 71 106 98 86
157 156 138 119 95 77 59 48 34 31 30 28 30 30 26 19 14 14 10 7 5 5 8 10 11 16 18 12 8 12 13 8 5 342 336 336 337 336 344 10 133 101 91
171 167 165 150 128 92 42 33 29 34 34 31 33 40 41 32 22 18 11 5 5 9 12 10 16 17 15 9 6 7 7 3 349 336 335 339 336 333 333 342 245 157 103
151 173 173 146 136 121 93 48 38 39 31 23 23 36 49 36 25 16 15 6 7 8 9 13 12 11 10 10 10 7 8 3 340 329 327 338 342 339 334 330 321 241 145
161 170 166 149 141 114 97 66 61 48 38 28 27 35 56 58 31 22 18 14 9 11 13 8 11 12 9 7 9 11 3 0 347 338 336 343 344 344 337 336 341 354 30
173 172 164 131 122 116 114 107 79 66 57 51 41 40 61 71 60 39 19 12 10 11 12 18 21 14 2 4 8 6 2 5 360 357 350 345 348 353 353 1 3 7 19
170 161 146 132 112 115 115 102 82 70 71 58 43 43 55 66 66 58 25 7 1 4 13 25 27 25 15 15 9 360 6 11 8 2 0 357 355 355 359 1 3 4 13
156 154 144 124 115 112 104 89 78 72 69 56 50 49 48 51 55 56 31 5 358 9 19 21 27 27 18 15 6 358 5 10 9 9 15 14 9 3 2 5 13 7 4
161 151 128 112 112 106 96 85 77 73 64 52 52 47 40 41 44 50 34 8 9 19 17 16 35 36 21 9 9 14 13 12 2 17 20 16 13 9 6 9 19 15 14
142 136 128 114 104 97 86 76 61 54 40 39 37 28 30 32 34 41 34 18 20 27 20 22 30 31 26 7 26 27 17 14 20 21 12 14 13 13 15 18 19 9 20
127 130 134 126 122 113 96 92 84 59 15 14 11 14 21 22 25 34 24 16 22 29 12 16 33 32 19 6 38 16 4 17 31 23 13 16 11 11 19 21 23 20 14
149 149 144 146 147 140 124 122 121 121 65 356 343 5 17 16 15 21 25 10 12 23 19 21 37 39 17 26 63 58 12 358 360 8 10 18 6 10 16 13 17 22 19
165 169 161 158 147 133 115 99 77 55 34 17 3 352 351 0 7 16 19 20 16 28 15 4 26 71 39 18 48 103 100 316 324 340 358 9 6 9 4 5 8 4 4
188 163 147 142 133 128 124 118 115 109 101 292 304 321 339 2 7 13 15 17 17 18 8 351 32 67 100 35 20 51 126 164 126 339 336 346 358 5 357 355 359 357 1
155 139 135 125 123 126 127 129 119 109 126 346 351 359 359 358 8 10 12 15 12 9 2 3 15 42 103 141 133 103 84 69 110 149 311 328 345 348 346 344 348 349 355
126 123 126 125 128 132 130 128 130 133 121 63 17 3 351 346 349 358 1 5 3 5 358 356 4 31 54 97 123 152 157 162 187 163 228 306 324 320 329 337 341 337 349
Height
1518 1519 1520 1521 1522 1523 1524 1525 1526 1526 1527 1528 1528 1529 1529 1530 1531 1531 1531 1532 1532 1532 1532 1532 1532 1532 1532 1532 1532 1532 1532 1532 1532 1531 1531 1530 1530 1530 1529 1529 1529 1529 1529
1518 1520 1521 1522 1523 1525 1525 1526 1527 1528 1528 1529 1529 1530 1530 1531 1531 1531 1532 1532 1533 1533 1533 1533 1533 1533 1533 1533 1532 1532 1532 1532 1532 1532 1532 1531 1531 1530 1530 1529 1529 1528 1528
1519 1521 1523 1524 1525 1526 1527 1528 1528 1529 1529 1530 1530 1531 1531 1531 1532 1532 1533 1533 1533 1533 1533 1533 1533 1533 1533 1533 1533 1533 1533 1533 1533 1532 1532 1531 1531 1530 1530 1529 1529 1528 1527
1521 1522 1524 1525 1526 1527 1528 1529 1529 1530 1530 1531 1531 1531 1532 1532 1532 1533 1533 1533 1534 1533 1533 1533 1533 1533 1533 1533 1533 1533 1533 1533 1533 1532 1532 1532 1531 1530 1530 1529 1529 1528 1526
1522 1524 1526 1527 1528 1529 1529 1530 1531 1531 1532 1532 1532 1532 1533 1533 1533 1533 1533 1534 1534 1534 1533 1533 1533 1533 1533 1533 1533 1533 1533 1533 1533 1533 1532 1532 1531 1530 1530 1529 1529 1528 1527
1524 1526 1527 1528 1529 1530 1531 1531 1532 1532 1533 1533 1533 1533 1534 1534 1534 1534 1534 1534 1534 1534 1533 1533 1533 1533 1533 1533 1533 1533 1533 1533 1533 1533 1532 1532 1531 1530 1530 1529 1529 1529 1529
1526 1528 1529 1530 1531 1531 1532 1533 1533 1534 1534 1535 1535 1535 1535 1535 1535 1535 1534 1534 1534 1533 1533 1533 1533 1533 1533 1533 1533 1533 1533 1533 1533 1533 1532 1532 1531 1530 1529 1529 1530 1530 1530
1528 1529 1531 1531 1532 1533 1533 1534 1535 1535 1536 1536 1536 1536 1536 1536 1535 1535 1535 1534 1534 1533 1533 1533 1533 1533 1533 1533 1533 1533 1533 1533 1533 1533 1533 1532 1531 1530 1530 1530 1530 1531 1531
1530 1531 1532 1533 1534 1534 1535 1536 1536 1537 1537 1537 1537 1537 1537 1536 1536 1535 1535 1534 1534 1533 1533 1532 1532 1532 1532 1532 1532 1533 1533 1533 1533 1533 1533 1532 1532 1531 1531 1531 1531 1532 1532
1531 1533 1534 1535 1535 1536 1537 1537 1538 1538 1538 1538 1538 1538 1538 1537 1536 1536 1535 1535 1534 1533 1533 1533 1532 1532 1532 1532 1532 1532 1532 1532 1533 1533 1533 1533 1532 1532 1531 1532 1532 1532 1532
1533 1534 1535 1536 1537 1538 1538 1539 1539 1539 1540 1539 1539 1539 1538 1538 1537 1536 1535 1535 1534 1534 1533 1533 1532 1532 1532 1532 1532 1532 1532 1532 1532 1532 1532 1533 1533 1532 1532 1532 1532 1532 1532
1534 1535 1537 1537 1538 1539 1540 1540 1540 1540 1540 1540 1540 1539 1539 1538 1537 1536 1536 1535 1534 1534 1533 1533 1532 1532 1532 1532 1532 1532 1532 1532 1532 1532 1532 1532 1532 1533 1532 1532 1532 1532 1532
1535 1536 1538 1538 1539 1540 1541 1541 1541 1541 1541 1541 1541 1540 1539 1538 1538 1537 1536 1535 1534 1534 1533 1533 1532 1532 1532 1532 1531 1531 1531 1531 1532 1532 1532 1532 1532 1532 1532 1532 1532 1533 1533
1536 1537 1538 1539 1540 1541 1542 1542 1542 1542 1542 1542 1541 1540 1539 1539 1538 1537 1536 1535 1534 1534 1533 1533 1532 1532 1532 1532 1531 1531 1531 1531 1531 1531 1532 1532 1532 1532 1532 1532 1533 1533 1533
1537 1538 1539 1540 1541 1542 1543 1543 1543 1543 1543 1542 1542 1541 1540 1539 1538 1537 1536 1535 1534 1534 1533 1533 1532 1532 1532 1531 1531 1531 1531 1531 1531 1531 1531 1531 1532 1532 1532 1532 1532 1532 1533
1538 1539 1540 1541 1542 1543 1543 1544 1544 1544 1543 1543 1542 1541 1540 1539 1538 1537 1536 1535 1535 1534 1533 1532 1532 1532 1531 1531 1531 1530 1530 1530 1531 1531 1531 1531 1531 1532 1532 1532 1532 1532 1533
1539 1541 1541 1542 1543 1543 1544 1544 1544 1544 1544 1543 1542 1541 1540 1539 1538 1537 1536 1535 1534 1534 1533 1532 1532 1531 1531 1531 1530 1530 1530 1530 1530 1531 1531 1531 1531 1531 1532 1532 1532 1532 1533
1541 1542 1542 1543 1544 1544 1544 1545 1545 1544 1544 1543 1543 1542 1541 1540 1539 1538 1536 1535 1534 1534 1533 1532 1531 1531 1531 1530 1530 1530 1530 1530 1530 1530 1531 1531 1531 1531 1532 1532 1532 1533 1533
1541 1542 1543 1544 1544 1545 1545 1545 1545 1545 1544 1544 1543 1542 1541 1540 1539 1538 1537 1536 1535 1534 1533 1532 1532 1531 1531 1530 1530 1530 1530 1530 1530 1530 1530 1531 1531 1531 1531 1532 1532 1532 1533
1542 1543 1544 1544 1545 1545 1545 1546 1545 1545 1545 1545 1544 1543 1542 1541 1540 1538 1537 1536 1535 1534 1533 1533 1532 1531 1531 1530 1530 1530 1530 1530 1530 1530 1530 1531 1531 1531 1531 1531 1532 1532 1533
1542 1543 1544 1545 1545 1546 1546 1546 1546 1546 1546 1545 1545 1544 1543 1542 1540 1539 1538 1537 1536 1535 1534 1533 1533 1532 1531 1531 1530 1530 1530 1530 1531 1531 1531 1531 1531 1531 1531 1531 1531 1532 1533
1542 1543 1544 1545 1546 1546 1547 1547 1547 1546 1546 1546 1545 1545 1543 1542 1541 1540 1538 1537 1536 1535 1534 1534 1533 1533 1532 1532 1531 1531 1531 1532 1531 1531 1531 1531 1531 1531 1531 1531 1531 1532 1532
1541 1543 1544 1545 1546 1547 1547 1547 1547 1547 1547 1546 1546 1545 1544 1543 1542 1540 1539 1538 1537 1536 1535 1534 1534 1533 1533 1532 1532 1532 1532 1532 1532 1532 1532 1531 1531 1531 1531 1531 1531 1531 1532
1541 1543 1544 1546 1546 1547 1548 1548 1548 1547 1547 1547 1546 1545 1544 1543 1542 1541 1539 1538 1537 1536 1536 1535 1534 1534 1533 1533 1533 1533 1533 1532 1532 1532 1532 1532 1531 1531 1531 1530 1531 1531 1531
1541 1543 1544 1546 1546 1547 1548 1548 1548 1548 1547 1547 1546 1546 1545 1544 1543 1541 1540 1539 1538 1537 1536 1535 1535 1534 1534 1533 1533 1533 1533 1533 1532 1532 1531 1531 1531 1531 1531 1530 1530 1531 1531
1541 1542 1544 1545 1546 1547 1548 1548 1548 1548 1548 1547 1547 1546 1545 1544 1543 1542 1541 1540 1539 1538 1537 1536 1535 1535 1534 1534 1533 1533 1533 1532 1532 1532 1531 1531 1530 1531 1531 1530 1530 1530 1530